STARLINK-32142, 60291

Orbit data source: Space-Track

STARLINK-32142, 60291 is a payload satellite owned by SpaceX/Seattle (US) in LEO that was launched on Sun, 28 Jul 2024 UTC via an FALCON 9 launch vehicle from the Air Force Eastern Test Range (AFETR). Payload-class satellites include a variety of spacecraft equipped with specific instruments for various scientific and technological missions. These include communications satellites like Starlink; space stations such as the ISS; scientific satellites like the Hubble; Earth observation satellites from companies like Planet Labs, Umbra, and HawkEye 360; GPS; miniature CubeSats for education and research; and military/defense satellites.

Loading next visibility...
Identifier
60291, 2024-132P
Orbit
LEO
Last TLE update
12 hours ago
Origin
Manufacturer
SpaceX/Seattle
Mission
Operational spacecraft
Bus & Motor
STARLINK V2M, Unknown motor
Mass
730 kg wet, ~700 kg dry
Launch date (UTC)
2024-07-28 (11 months ago)
Launch vehicle
FALCON 9
Launch site
Air Force Eastern Test Range (AFETR)
Object type
Payload
Rocket body
Debris
Shape & HBR
Unknown
Radar Cross Section
Large (>1 m²)

Expand to show TLE details & history

TLE from 12 hours ago
0 STARLINK-32142
1 60291U 24132P   25181.89745978 -.00000129  00000-0  77881-5 0  9993
2 60291  53.1592 141.7105 0001287  84.8886 275.2262 15.30191617 53013
Epoch: 2025-06-30T21:32Z
TLE epoch observation values (Epoch: 2025-06-30T21:32:20.524Z)
Latitude
-0.00002°
Longitude
-100.5757°
Altitude
476.059 km
Speed
7.629 km/s
True Right ascension
09h 26m 50s
True Declination
0° 00' 00"
Sunlit
Object was in daylight at epoch
Visualization orbit readout
Latitude
-39.20488°
Longitude
114.53319°
Altitude
488.807 km
Speed
7.62 km/s
Apparent Right ascension
04h 01m 42s
Apparent Declination
-67° 30' 35"
Sunlit
Object is in full shadow
Visualization observer readout
Local Sidereal Time
21:09:33
Azimuth
150.297° SSE
Elevation
-41.228°
Doppler factor
1
Orbital elements
Apogee altitude
476.379 km
Perigee altitude
474.615 km
Semi-major axis
6,853.634 km
Eccentricity
0.00013
Inclination
53.1592°
RAAN
141.7105°
Arg. of periapsis
84.8886°
True anomaly
Unknown
Mean anomaly
275.2262°
Eccentric anomaly
Unknown
Mean motion
3.82527 °/min
Orbital period
94.11 mins
BSTAR
0.0000077881
Loading maneuver chart data...
Loading SW <> Apogee altitude chart data...
Loading historical data...
Loading historical data...
Loading historical data...
Loading historical data...
Loading historical data...
Loading historical data...
Loading historical data...

STARLINK-32142 Visibility forecast

Observer location: undefined°, undefined°

Span
Click to sort rows by Start time (UTC) header in descending order
Start Az.
Max El. time (UTC)
Max El. Az.
Max El.
End time (UTC)
End Az.
4 mins2025-07-01 22:46:15.252Z169.177° S2025-07-01 22:48:15.252Z134.456° SE16.904°2025-07-01 22:50:15.252Z95.214° ESE
5 mins2025-07-02 00:24:15.252Z256.62° W2025-07-02 00:26:15.252Z331.023° NNW38.358°2025-07-02 00:29:15.252Z40.016° NE
4 mins2025-07-02 05:21:15.252Z347.455° N2025-07-02 05:23:15.252Z31.868° NE20.464°2025-07-02 05:25:15.252Z70.933° E
5 mins2025-07-02 06:59:15.252Z296.674° NW2025-07-02 07:01:15.252Z215.409° SW41.388°2025-07-02 07:04:15.252Z144.033° SSE
|